Gardner, KS

12:27 AM CDT on September 01, 2016 (GMT -0500)
New Century Aircenter

Weather History for KIXD - December, 2012

Change the Weather History Date:

Saturday, December 15, 2012

  Actual Average Record
Temperature  
Mean Temperature 43 °F -  
Max Temperature 53 °F 40 °F 66 °F (2002)
Min Temperature 33 °F 22 °F 3 °F (2008)
Degree Days  
Heating Degree Days 22    
Moisture  
Dew Point 42 °F    
Average Humidity 85    
Maximum Humidity 100    
Minimum Humidity 72    
Precipitation  
Precipitation 0.06 in - - ()
Sea Level Pressure  
Sea Level Pressure 29.62 in    
Wind  
Wind Speed 15 mph (SW)    
Max Wind Speed 22 mph    
Max Gust Speed 34 mph    
Visibility 9 miles    
Events Fog , Rain    
Averages and records for this station are not official NWS values.
T = Trace of Precipitation, MM = Missing Value Source: NWS Daily Summary

Daily Weather History Graph

Daily Weather History Graph

Search for Another Location

Airport or City:

Trip Planner

Search our weather history database for the weather conditions in past years. The results will help you decide how hot, cold, wet, or windy it might be!

Date:

Astronomy

Dec. 15, 2012 Rise Set
Actual Time 7:31 AM CST 4:58 PM CST
Civil Twilight 7:01 AM CST 5:28 PM CST
Nautical Twilight 6:27 AM CST 6:02 PM CST
Astronomical Twilight 5:55 AM CST 6:34 PM CST
Moon 9:25 AM CST (12/15) 8:02 PM CST (12/15)
Length of Visible Light 10h 27m
Length of Day
9h 27m
Waxing Crescent, 8% of the Moon is Illuminated
Dec 15
Waxing Crescent
Dec 19
First Quarter
Dec 28
Full
Jan 4
Last Quarter
Jan 11
New

Hourly Weather History & Observations

Time (CST) Temp. Windchill Dew Point Humidity Pressure Visibility Wind Dir Wind Speed Gust Speed Precip Events Conditions
12:09 AM 44.6 °F 36.1 °F 41.0 °F 87% 29.67 in 10.0 mi SSE 21.9 mph 31.1 mph 0.01 in Rain Light Rain
12:53 AM 44.1 °F 35.7 °F 41.0 °F 89% 29.62 in 10.0 mi SSE 20.7 mph 34.5 mph 0.01 in Rain Light Rain
1:53 AM 45.0 °F 38.2 °F 42.1 °F 90% 29.61 in 10.0 mi SSE 15.0 mph - 0.00 in   Overcast
2:33 AM 46.4 °F 39.0 °F 42.8 °F 87% 29.58 in 10.0 mi SSE 19.6 mph 33.4 mph N/A   Overcast
2:53 AM 46.0 °F 38.3 °F 43.0 °F 89% 29.57 in 10.0 mi SSE 20.7 mph 27.6 mph N/A   Overcast
3:53 AM 46.9 °F - 44.1 °F 90% 29.54 in 10.0 mi South 20.7 mph 29.9 mph N/A   Overcast
4:22 AM 48.2 °F - 44.6 °F 87% 29.52 in 10.0 mi South 18.4 mph 28.8 mph N/A   Overcast
4:53 AM 48.9 °F - 44.1 °F 83% 29.51 in 10.0 mi South 17.3 mph 26.5 mph 0.00 in Rain Light Rain
5:02 AM 48.2 °F - 44.6 °F 87% 29.51 in 10.0 mi South 17.3 mph 25.3 mph 0.00 in Rain Light Rain
5:53 AM 48.0 °F - 45.0 °F 89% 29.50 in 7.0 mi South 16.1 mph 21.9 mph 0.05 in Rain Light Rain
6:53 AM 48.9 °F - 43.0 °F 80% 29.51 in 10.0 mi SSW 15.0 mph - 0.00 in   Overcast
7:53 AM 48.0 °F - 41.0 °F 77% 29.52 in 10.0 mi SSW 15.0 mph 26.5 mph N/A   Overcast
8:18 AM 48.2 °F - 41.0 °F 76% 29.54 in 10.0 mi SSW 17.3 mph 24.2 mph N/A   Overcast
8:53 AM 48.9 °F - 41.0 °F 74% 29.55 in 10.0 mi SSW 15.0 mph 24.2 mph N/A   Overcast
9:02 AM 48.2 °F - 41.0 °F 76% 29.56 in 10.0 mi SW 16.1 mph 24.2 mph N/A   Scattered Clouds
9:53 AM 51.1 °F - 43.0 °F 74% 29.56 in 10.0 mi SW 12.7 mph - N/A   Clear
10:36 AM 53.6 °F - 44.6 °F 72% 29.59 in 10.0 mi SW 17.3 mph - N/A   Mostly Cloudy
10:53 AM 52.0 °F - 45.0 °F 77% 29.60 in 10.0 mi WSW 16.1 mph - N/A   Overcast
11:53 AM 52.0 °F - 45.0 °F 77% 29.62 in 10.0 mi West 15.0 mph - N/A   Overcast
12:43 PM 48.2 °F - 44.6 °F 87% 29.62 in 10.0 mi WSW 12.7 mph - N/A   Overcast
12:53 PM 48.9 °F - 44.1 °F 83% 29.62 in 10.0 mi WSW 17.3 mph 21.9 mph N/A   Overcast
1:12 PM 48.2 °F - 42.8 °F 82% 29.61 in 10.0 mi WSW 13.8 mph - N/A   Overcast
1:53 PM 50.0 °F - 43.0 °F 77% 29.62 in 10.0 mi SW 11.5 mph - N/A   Overcast
2:53 PM 50.0 °F - 44.1 °F 80% 29.64 in 10.0 mi SW 9.2 mph - N/A   Overcast
3:53 PM 50.0 °F - 44.1 °F 80% 29.65 in 10.0 mi WSW 9.2 mph - N/A   Overcast
4:37 PM 48.2 °F - 42.8 °F 82% 29.67 in 10.0 mi West 9.2 mph - N/A   Scattered Clouds
4:53 PM 48.0 °F - 43.0 °F 83% 29.68 in 10.0 mi West 9.2 mph - N/A   Clear
5:53 PM 44.1 °F 41.5 °F 41.0 °F 89% 29.69 in 10.0 mi West 4.6 mph - N/A   Clear
6:53 PM 43.0 °F 40.3 °F 39.9 °F 89% 29.71 in 10.0 mi West 4.6 mph - N/A   Clear
7:53 PM 42.1 °F 39.2 °F 39.0 °F 89% 29.72 in 8.0 mi WNW 4.6 mph - N/A   Clear
8:53 PM 39.9 °F 36.7 °F 37.9 °F 93% 29.73 in 8.0 mi NW 4.6 mph - N/A   Partly Cloudy
9:53 PM 39.0 °F 36.8 °F 37.0 °F 93% 29.73 in 4.0 mi West 3.5 mph - N/A   Clear
10:53 PM 39.0 °F - 37.0 °F 93% 29.73 in 5.0 mi Calm Calm - N/A   Clear
11:31 PM 35.6 °F - 35.6 °F 100% 29.73 in 1.2 mi Calm Calm - N/A   Clear
11:39 PM 33.8 °F 30.8 °F 33.8 °F 100% 29.73 in 0.5 mi South 3.5 mph - N/A Fog Fog
11:53 PM 34.0 °F - 33.1 °F 96% 29.75 in 1.8 mi Calm Calm - N/A   Clear